Weather History for KESN - April, 2013

Change the Weather History Date:

Monday, April 22, 2013

  Actual Average Record
Temperature  
Mean Temperature 43 °F -  
Max Temperature 53 °F 72 °F 84 °F (1973)
Min Temperature 33 °F 51 °F 33 °F (2013)
Degree Days  
Heating Degree Days 22    
Moisture  
Dew Point 37 °F    
Average Humidity 86    
Maximum Humidity 100    
Minimum Humidity 58    
Precipitation  
Precipitation 0.00 in - - ()
Sea Level Pressure  
Sea Level Pressure 30.56 in    
Wind  
Wind Speed 4 mph (ENE)    
Max Wind Speed 16 mph    
Max Gust Speed 22 mph    
Visibility 10 miles    
Events      
Averages and records for this station are not official NWS values.
T = Trace of Precipitation, MM = Missing Value Source: NWS Daily Summary

Daily Weather History Graph

Daily Weather History Graph

Search for Another Location

Airport or City:

Trip Planner

Search our weather history database for the weather conditions in past years. The results will help you decide how hot, cold, wet, or windy it might be!

Date:

Astronomy

Apr. 22, 2013 Rise Set
Actual Time 6:17 AM EDT 7:48 PM EDT
Civil Twilight 5:49 AM EDT 8:16 PM EDT
Nautical Twilight 5:16 AM EDT 8:50 PM EDT
Astronomical Twilight 4:40 AM EDT 9:25 PM EDT
Moon 4:36 PM EDT (4/22) 4:09 AM EDT (4/22)
Length of Visible Light 14h 26m
Length of Day
13h 30m
Waxing Gibbous, 87% of the Moon is Illuminated
Apr 22
Waxing Gibbous
Apr 25
Full
May 2
Last Quarter
May 9
New
May 18
First Quarter

Hourly Weather History & Observations

Time (EDT) Temp. Windchill Dew Point Humidity Pressure Visibility Wind Dir Wind Speed Gust Speed Precip Events Conditions
12:19 AM 38.7 °F - 34.0 °F 83% 30.63 in 10.0 mi Calm Calm - N/A   Clear
12:39 AM 38.3 °F 35.9 °F 34.2 °F 85% 30.63 in 10.0 mi East 3.5 mph - N/A   Clear
12:59 AM 38.1 °F 35.7 °F 34.2 °F 86% 30.62 in 10.0 mi East 3.5 mph - N/A   Clear
1:19 AM 36.7 °F - 34.7 °F 93% 30.61 in 10.0 mi Calm Calm - N/A   Clear
1:39 AM 36.5 °F - 34.3 °F 92% 30.60 in 10.0 mi Calm Calm - N/A   Clear
1:59 AM 36.5 °F 33.9 °F 34.9 °F 94% 30.59 in 10.0 mi ENE 3.5 mph - N/A   Clear
2:19 AM 35.1 °F - 34.0 °F 96% 30.59 in 10.0 mi Calm Calm - N/A   Clear
2:39 AM 35.1 °F - 35.1 °F 100% 30.60 in 10.0 mi Calm Calm - N/A   Clear
2:59 AM 34.7 °F - 34.7 °F 100% 30.60 in 10.0 mi Calm Calm - N/A   Clear
3:19 AM 34.2 °F - 34.2 °F 100% 30.60 in 10.0 mi Calm Calm - N/A   Clear
3:39 AM 34.0 °F - 34.0 °F 100% 30.59 in 10.0 mi Calm Calm - N/A   Clear
3:59 AM 33.8 °F 30.8 °F 33.8 °F 100% 30.59 in 10.0 mi NE 3.5 mph - N/A   Clear
4:20 AM 33.8 °F 30.8 °F 33.8 °F 100% 30.58 in 10.0 mi NNE 3.5 mph - N/A   Clear
4:40 AM 34.7 °F 30.6 °F 34.7 °F 100% 30.58 in 10.0 mi NE 4.6 mph - N/A   Clear
5:00 AM 34.3 °F 29.2 °F 34.3 °F 100% 30.57 in 10.0 mi NNE 5.8 mph - N/A   Clear
5:20 AM 34.3 °F 30.2 °F 34.3 °F 100% 30.58 in 10.0 mi NE 4.6 mph - N/A   Clear
5:40 AM 34.2 °F 29.0 °F 34.2 °F 100% 30.57 in 10.0 mi NNE 5.8 mph - N/A   Clear
5:47 AM 33.8 °F 29.6 °F 33.8 °F 100% 30.57 in 10.0 mi NNE 4.6 mph - N/A   Clear
6:00 AM 34.0 °F 29.8 °F 34.0 °F 100% 30.57 in 10.0 mi NNE 4.6 mph - N/A   Clear
6:20 AM 34.0 °F 31.0 °F 34.0 °F 100% 30.57 in 10.0 mi NE 3.5 mph - N/A   Clear
6:40 AM 34.9 °F 30.8 °F 34.9 °F 100% 30.57 in 10.0 mi NNE 4.6 mph - N/A   Clear
6:51 AM 35.6 °F 31.7 °F 35.6 °F 100% 30.57 in 10.0 mi NNE 4.6 mph - N/A   Partly Cloudy
7:00 AM 36.5 °F 33.9 °F 36.5 °F 100% 30.58 in 10.0 mi NNE 3.5 mph - N/A   Clear
7:20 AM 38.5 °F 35.0 °F 36.5 °F 93% 30.59 in 10.0 mi NE 4.6 mph - N/A   Clear
7:40 AM 40.5 °F 35.8 °F 37.9 °F 91% 30.59 in 10.0 mi NE 6.9 mph - N/A   Clear
7:42 AM 40.6 °F 36.0 °F 37.9 °F 90% 30.59 in 10.0 mi NE 6.9 mph - N/A   Clear
7:45 AM 41.0 °F 35.8 °F 37.4 °F 87% 30.59 in 10.0 mi NE 8.1 mph - N/A   Scattered Clouds
8:45 AM 44.6 °F 38.8 °F 41.0 °F 87% 30.57 in 10.0 mi ENE 11.5 mph - N/A   Scattered Clouds
10:50 AM 53.6 °F - 39.2 °F 58% 30.58 in 10.0 mi East 13.8 mph 21.9 mph N/A   Mostly Cloudy
10:58 AM 50.0 °F - 39.2 °F 66% 30.57 in 10.0 mi ENE 9.2 mph 18.4 mph N/A   Mostly Cloudy
11:50 AM 50.0 °F - 39.2 °F 66% 30.57 in 10.0 mi ENE 15.0 mph 18.4 mph N/A   Overcast
12:51 PM 51.8 °F - 41.0 °F 67% 30.55 in 10.0 mi ENE 15.0 mph 19.6 mph N/A   Mostly Cloudy
1:50 PM 53.6 °F - 41.0 °F 62% 30.53 in 10.0 mi East 16.1 mph - N/A   Scattered Clouds
2:53 PM 53.6 °F - 41.0 °F 62% 30.50 in 10.0 mi East 11.5 mph 18.4 mph N/A   Mostly Cloudy
3:50 PM 53.6 °F - 41.0 °F 62% 30.49 in 10.0 mi East 12.7 mph 18.4 mph N/A   Mostly Cloudy
4:53 PM 53.6 °F - 39.2 °F 58% 30.47 in 10.0 mi East 10.4 mph 19.6 mph N/A   Mostly Cloudy
5:50 PM 50.0 °F - 39.2 °F 66% 30.46 in 10.0 mi East 16.1 mph 19.6 mph N/A   Mostly Cloudy
6:53 PM 50.0 °F - 39.2 °F 66% 30.46 in 10.0 mi East 10.4 mph 16.1 mph N/A   Overcast
7:53 PM 48.2 °F - 41.0 °F 76% 30.46 in 10.0 mi East 11.5 mph 18.4 mph N/A   Overcast
8:53 PM 48.2 °F - 41.0 °F 76% 30.46 in 10.0 mi ENE 11.5 mph - N/A   Overcast
11:02 PM 46.8 °F - 41.9 °F 83% 30.45 in 10.0 mi ENE 8.1 mph - N/A   Scattered Clouds
11:22 PM 46.6 °F - 41.9 °F 84% 30.45 in 10.0 mi ENE 8.1 mph - N/A   Scattered Clouds
11:42 PM 46.6 °F - 41.9 °F 84% 30.44 in 10.0 mi ENE 6.9 mph - N/A   Mostly Cloudy